Location: Newark
(43.0000°N, 1.6781°W)
Time: 07:33:04
(UTC+00:00)

Vanguard 1 - Pass Details

Date: 21 April 2021
Orbit: 649 x 3834 km, 34.2° (Epoch: 04 May)

Event Time Altitude Azimuth Distance (km) Brightness Sun altitude
Rises 21:48:26 0° 281° (W) 7,924 15.4 -26.6°
Reaches altitude 10° 21:57:23 10° 264° (W) 6,926 14.7 -27.6°
Maximum altitude 22:08:23 16° 235° (SW) 6,097 14.0 -28.7°
Drops below altitude 10° 22:18:14 10° 204° (SSW) 6,018 13.7 -29.6°
Enters shadow 22:19:35 - 200° (SSW) 6,069 13.7 -29.8°
